Date String (YYYY-MM-DD hh:mm:ss) UTC,Instrument flags,Ambient pressure (hPa),Sample flow (lpm),Bypass flow (lpm),Sample temperature (°C),Ambient temperature (°C),ASC tube jacket temperature (°C),LED temperature (°C),Box temperature (°C),Sample RH (%),Span deviation,Mass concentration (μg/m³),Mass concentration (μg/m³),Mass concentration (μg/m³)
DateTimeUTC,F1_M11,P_M11,Q1_M11,Q2_M11,T1_M11,T2_M11,T3_M11,T4_M11,T5_M11,U1_M11,ZSPAN_M11,X0_M11,X2_M11,X1_M11
2022-05-16 12:00:00,,0826.4,5.00,0.00,29.0,28.3,00.0,38.0,30.8,16.2,0000.0,0013.64,0003.72,0002.30
2022-05-16 12:01:00,,0826.4,4.99,0.00,29.0,28.3,00.0,38.0,30.8,16.2,0000.0,0012.66,0003.71,0002.28
2022-05-16 12:02:00,,0826.5,5.01,0.00,29.0,28.3,00.0,38.0,30.8,16.2,0000.0,0012.14,0003.69,0002.28
2022-05-16 12:03:00,,0826.5,5.00,0.00,29.0,28.3,00.0,38.0,30.8,16.2,0000.0,0012.77,0003.71,0002.29
2022-05-16 12:04:00,,0826.5,4.99,0.00,29.1,28.3,00.0,38.0,30.9,16.2,0000.0,0012.68,0003.74,0002.29
2022-05-16 12:05:00,,0826.4,4.99,0.00,29.1,28.4,00.0,38.0,30.9,16.3,0000.0,0012.76,0003.70,0002.30
2022-05-16 12:06:00,,0826.5,5.00,0.00,29.1,28.4,00.0,38.0,30.9,16.1,0000.0,0012.13,0003.72,0002.28
2022-05-16 12:07:00,,0826.4,5.01,0.00,29.1,28.4,00.0,38.0,30.9,16.1,0000.0,0011.92,0003.71,0002.28
2022-05-16 12:08:00,,0826.3,5.00,0.00,29.1,28.4,00.0,38.0,30.9,16.1,0000.0,0011.34,0003.68,0002.27
2022-05-16 12:09:00,,0826.3,5.00,0.00,29.1,28.4,00.0,38.0,30.9,16.1,0000.0,0011.22,0003.66,0002.26
2022-05-16 12:10:00,,0826.2,5.00,0.00,29.1,28.4,00.0,38.0,30.9,16.2,0000.0,0011.94,0003.68,0002.27
2022-05-16 12:11:00,,0826.2,4.99,0.00,29.1,28.4,00.0,38.1,30.9,16.1,0000.0,0012.76,0003.69,0002.29
2022-05-16 12:12:00,,0826.2,5.01,0.00,29.2,28.4,00.0,38.1,30.9,16.1,0000.0,0013.29,0003.71,0002.31
2022-05-16 12:13:00,,0826.2,5.01,0.00,29.2,28.4,00.0,38.1,31.0,16.0,0000.0,0013.15,0003.75,0002.32
2022-05-16 12:14:00,,0826.2,5.00,0.00,29.2,28.4,00.0,38.1,31.0,16.0,0000.0,0012.80,0003.75,0002.34
2022-05-16 12:15:00,,0826.3,4.99,0.00,29.2,28.4,00.0,38.1,31.0,16.0,0000.0,0012.14,0003.75,0002.37
2022-05-16 12:16:00,,0826.3,5.00,0.00,29.2,28.4,00.0,38.1,31.0,16.1,0000.0,0011.70,0003.78,0002.37
2022-05-16 12:17:00,,0826.2,5.00,0.00,29.2,28.4,00.0,38.1,31.0,16.1,0000.0,0011.94,0003.75,0002.36
2022-05-16 12:18:00,,0826.2,5.00,0.00,29.2,28.4,00.0,38.1,31.0,16.0,0000.0,0012.03,0003.73,0002.37
2022-05-16 12:19:00,,0826.2,5.01,0.00,29.3,28.4,00.0,38.1,31.0,16.0,0000.0,0013.05,0003.73,0002.39
2022-05-16 12:20:00,,0826.1,4.99,0.00,29.3,28.5,00.0,38.1,31.1,16.0,0000.0,0013.21,0003.71,0002.39
2022-05-16 12:21:00,,0826.1,5.00,0.00,29.3,28.5,00.0,38.2,31.1,15.8,0000.0,0012.55,0003.67,0002.39
2022-05-16 12:22:00,,0826.0,5.01,0.00,29.3,28.4,00.0,38.2,31.1,15.9,0000.0,0012.03,0003.67,0002.40
2022-05-16 12:23:00,,0826.1,5.00,0.00,29.3,28.4,00.0,38.2,31.0,16.0,0000.0,0011.67,0003.70,0002.39
2022-05-16 12:24:00,,0826.1,5.01,0.00,29.3,28.4,00.0,38.2,31.0,16.0,0000.0,0011.74,0003.71,0002.40
2022-05-16 12:25:00,,0826.1,4.98,0.00,29.2,28.4,00.0,38.2,31.0,16.1,0000.0,0011.76,0003.71,0002.40
2022-05-16 12:26:00,,0826.1,5.01,0.00,29.2,28.4,00.0,38.2,30.9,16.3,0000.0,0011.62,0003.67,0002.39
2022-05-16 12:27:00,,0826.1,5.00,0.00,29.2,28.3,00.0,38.2,30.9,16.2,0000.0,0011.34,0003.66,0002.41
2022-05-16 12:28:00,,0826.2,5.00,0.00,29.1,28.3,00.0,38.2,30.9,16.2,0000.0,0011.38,0003.72,0002.46
2022-05-16 12:29:00,,0826.1,5.00,0.00,29.1,28.3,00.0,38.2,30.8,16.2,0000.0,0011.11,0003.77,0002.47
2022-05-16 12:30:00,,0826.2,5.00,0.00,29.1,28.3,00.0,38.2,30.9,16.2,0000.0,0010.92,0003.80,0002.48
2022-05-16 12:31:00,,0826.2,5.00,0.00,29.1,28.3,00.0,38.1,30.9,16.3,0000.0,0011.54,0003.83,0002.48
2022-05-16 12:32:00,,0826.1,5.01,0.00,29.2,28.4,00.0,38.1,31.0,16.3,0000.0,0011.35,0003.85,0002.48
2022-05-16 12:33:00,,0826.0,4.99,0.00,29.2,28.4,00.0,38.1,31.0,16.5,0000.0,0011.07,0003.88,0002.47
2022-05-16 12:34:00,,0826.0,5.00,0.00,29.2,28.4,00.0,38.1,31.0,16.2,0000.0,0011.28,0003.86,0002.49
2022-05-16 12:35:00,,0826.0,5.01,0.00,29.2,28.4,00.0,38.1,31.0,16.4,0000.0,0011.53,0003.84,0002.48
2022-05-16 12:36:00,,0826.0,5.01,0.00,29.2,28.4,00.0,38.1,31.0,16.4,0000.0,0011.88,0003.88,0002.48
2022-05-16 12:37:00,,0825.9,4.99,0.00,29.2,28.4,00.0,38.2,30.9,16.2,0000.0,0012.15,0003.91,0002.49
2022-05-16 12:38:00,,0826.0,4.99,0.00,29.1,28.4,00.0,38.2,30.9,16.5,0000.0,0012.60,0003.96,0002.47
2022-05-16 12:39:00,,0826.0,5.01,0.00,29.2,28.4,00.0,38.2,30.9,17.1,0000.0,0012.59,0003.93,0002.43
2022-05-16 12:40:00,,0826.0,5.00,0.00,29.2,28.4,00.0,38.2,31.0,16.9,0000.0,0012.69,0003.85,0002.40
2022-05-16 12:41:00,,0825.9,4.99,0.00,29.2,28.4,00.0,38.2,31.0,16.7,0000.0,0012.63,0003.83,0002.38
2022-05-16 12:42:00,,0825.9,5.01,0.00,29.2,28.4,00.0,38.2,31.0,16.3,0000.0,0012.05,0003.85,0002.36
2022-05-16 12:43:00,,0825.9,4.99,0.00,29.3,28.5,00.0,38.2,31.0,16.4,0000.0,0012.40,0003.85,0002.35
2022-05-16 12:44:00,,0826.0,4.99,0.00,29.3,28.5,00.0,38.2,31.1,16.5,0000.0,0012.65,0003.81,0002.33
2022-05-16 12:45:00,,0826.0,5.00,0.00,29.3,28.5,00.0,38.2,31.1,16.6,0000.0,0012.23,0003.76,0002.30
2022-05-16 12:46:00,,0826.0,5.01,0.00,29.3,28.5,00.0,38.2,31.1,16.7,0000.0,0012.41,0003.75,0002.28
2022-05-16 12:47:00,,0826.0,5.01,0.00,29.3,28.5,00.0,38.2,31.1,16.4,0000.0,0012.24,0003.75,0002.28
2022-05-16 12:48:00,,0826.0,5.01,0.00,29.3,28.5,00.0,38.2,31.1,16.4,0000.0,0012.50,0003.77,0002.26
2022-05-16 12:49:00,,0826.0,5.00,0.00,29.3,28.5,00.0,38.2,31.1,16.6,0000.0,0012.24,0003.70,0002.25
2022-05-16 12:50:00,,0826.1,5.00,0.00,29.3,28.5,00.0,38.2,31.0,16.1,0000.0,0012.32,0003.72,0002.28
2022-05-16 12:51:00,,0826.0,4.99,0.00,29.2,28.5,00.0,38.2,31.0,16.0,0000.0,0012.62,0003.76,0002.31
2022-05-16 12:52:00,,0826.0,5.00,0.00,29.2,28.5,00.0,38.2,31.0,15.9,0000.0,0012.18,0003.77,0002.33
2022-05-16 12:53:00,,0826.1,5.00,0.00,29.2,28.5,00.0,38.2,31.0,15.9,0000.0,0012.62,0003.75,0002.36
2022-05-16 12:54:00,,0826.1,5.00,0.00,29.2,28.4,00.0,38.2,30.9,16.2,0000.0,0012.74,0003.77,0002.39
2022-05-16 12:55:00,,0826.1,4.98,0.00,29.2,28.4,00.0,38.2,31.0,16.3,0000.0,0012.77,0003.82,0002.42
2022-05-16 12:56:00,,0826.2,4.99,0.00,29.2,28.4,00.0,38.2,31.0,16.0,0000.0,0012.97,0003.90,0002.46
2022-05-16 12:57:00,,0826.1,5.00,0.00,29.2,28.4,00.0,38.2,31.0,16.2,0000.0,0012.08,0003.91,0002.52
2022-05-16 12:58:00,,0826.1,5.01,0.00,29.2,28.4,00.0,38.2,30.9,16.1,0000.0,0011.81,0003.90,0002.54
2022-05-16 12:59:00,,0826.1,5.01,0.00,29.1,28.4,00.0,38.2,30.9,16.1,0000.0,0012.53,0003.95,0002.56
